Probability
3 6 26 65 87 48 3 0 0 0 0 0 0 0 0 0 3 3 16 23 39 45 52 68 87 81 77 87 87 90 90 84 90 90 90 87 84 81 77 77 74 77 68 68 71 68 71 65 71
10 35 61 87 61 0 0 0 0 0 0 0 0 0 0 0 3 3 6 26 39 32 45 58 87 87 81 84 87 90 87 87 84 84 90 87 81 77 71 74 74 71 68 65 71 61 61 68 71
35 61 65 81 19 0 0 0 0 0 0 0 0 3 3 0 0 0 6 23 19 35 42 65 84 87 77 81 84 87 90 87 90 87 87 84 81 81 77 71 77 74 68 65 61 61 68 61 61
65 74 81 29 6 0 0 0 0 0 0 0 0 3 3 0 0 0 6 13 19 32 39 52 77 74 77 81 90 84 81 87 90 87 84 84 84 77 71 68 68 65 58 61 58 58 65 55 65
68 77 48 19 0 0 0 0 0 0 0 0 3 6 3 3 3 3 6 13 23 32 35 45 68 71 77 81 81 77 74 81 81 81 77 77 81 84 74 58 61 42 48 45 48 52 55 55 45
68 68 13 0 0 0 0 0 0 0 0 0 3 3 3 3 6 3 6 10 19 26 35 48 71 71 74 77 71 77 74 74 68 65 65 71 74 74 74 65 45 42 45 42 45 45 42 45 42
42 13 6 0 0 0 0 0 0 0 0 3 3 3 6 3 3 3 3 13 23 32 39 45 48 48 71 74 71 77 71 71 71 71 71 68 65 65 55 52 48 39 42 35 29 32 35 39 42
23 16 6 0 0 0 0 0 0 0 0 0 0 3 3 3 3 3 10 10 19 26 35 48 45 58 55 52 71 68 71 71 71 74 71 71 71 55 48 45 42 35 32 32 32 26 32 39 39
13 13 0 0 0 0 0 0 0 0 3 6 10 13 6 3 3 10 10 13 19 13 16 26 35 48 48 42 48 68 68 71 68 68 65 65 52 32 45 32 29 29 23 29 39 35 39 42 42
6 0 0 0 0 0 0 0 0 3 3 6 13 10 6 3 10 6 6 6 10 16 13 29 35 35 48 42 52 65 52 65 71 68 65 58 61 45 16 39 35 42 35 35 39 45 45 39 16
0 0 0 0 0 0 0 0 0 3 3 6 13 10 10 10 6 10 6 13 13 23 26 23 32 42 45 48 48 68 65 81 71 65 71 68 58 45 29 32 35 45 35 26 29 42 16 16 23
0 0 0 0 0 0 0 0 0 3 3 6 6 13 16 13 6 10 10 19 23 29 32 32 32 42 65 58 65 55 61 74 58 74 61 55 61 61 45 55 42 39 42 39 32 35 35 26 42
0 0 0 0 0 0 0 0 0 0 3 0 3 6 13 13 19 16 19 26 39 35 39 39 52 65 74 77 74 52 71 61 58 77 74 68 61 65 48 58 52 45 42 45 48 52 39 42 35
0 0 0 0 3 3 3 0 0 3 3 6 3 10 13 19 23 29 23 32 55 52 52 55 55 68 74 77 77 74 61 81 61 68 58 61 61 65 68 58 55 48 39 48 48 42 45 45 45
0 0 0 0 3 3 3 6 0 3 3 10 10 13 19 23 23 29 35 45 52 61 61 68 61 68 74 74 74 61 61 48 68 71 61 52 61 68 58 68 52 48 52 52 48 52 52 48 42
0 0 0 0 0 3 3 3 0 3 6 16 16 16 26 26 29 45 48 55 58 65 71 68 45 65 77 77 74 71 65 61 71 74 74 55 61 61 68 65 65 55 48 55 55 55 45 45 45
0 0 0 3 3 3 3 6 0 3 6 19 23 19 26 26 26 55 52 58 65 71 77 74 68 74 71 77 81 84 81 74 81 74 68 61 58 61 61 61 65 65 55 55 45 45 48 48 52
0 0 0 3 3 3 3 3 3 10 10 16 26 29 35 29 29 45 52 52 68 71 74 74 77 77 77 77 81 84 84 77 71 71 71 74 65 58 65 74 71 58 55 55 52 48 52 55 52
0 0 0 3 3 3 0 0 3 6 6 16 26 42 39 39 32 45 52 48 61 61 68 74 74 84 81 81 81 87 77 74 71 77 74 74 71 74 74 58 65 65 61 58 52 48 52 55 52
0 0 3 3 3 0 0 0 0 6 6 13 23 39 42 39 42 55 48 55 55 58 71 74 81 81 81 81 81 81 74 74 71 68 74 71 71 74 52 71 61 61 61 55 58 58 48 48 55
0 0 0 3 0 0 0 0 3 6 3 6 10 29 32 35 42 58 48 48 52 48 61 58 81 81 81 81 77 71 84 77 77 74 77 77 74 71 71 68 65 65 55 58 58 61 58 55 61
0 0 0 0 0 0 0 0 3 3 10 3 13 16 32 32 35 42 45 48 48 48 55 71 81 84 84 84 77 68 71 68 81 81 74 77 71 68 65 71 74 74 65 65 55 52 58 61 55
0 0 0 0 0 0 0 0 3 6 6 13 13 19 29 32 39 45 45 45 48 48 52 65 77 84 84 81 77 77 74 71 71 71 77 74 74 71 68 71 71 74 68 61 58 61 58 58 55
0 0 0 0 0 0 0 0 3 10 10 16 16 10 26 29 42 52 45 52 52 52 55 58 74 77 77 77 74 71 74 74 74 71 71 74 81 81 68 71 71 71 68 74 71 65 61 61 61
0 0 0 0 0 0 0 0 3 3 10 13 19 23 35 32 39 42 39 42 45 52 55 61 71 71 74 71 65 68 71 74 74 71 71 71 71 74 74 71 71 71 68 71 71 71 65 65 61
0 0 0 0 0 0 0 0 6 6 6 10 16 26 39 32 39 45 39 48 48 48 55 58 65 68 65 65 65 65 65 65 65 61 71 68 71 65 71 65 68 71 68 65 68 65 71 71 65
0 0 0 0 0 0 0 6 6 6 10 10 13 29 32 32 39 45 42 48 52 52 52 55 68 68 58 58 58 61 61 65 65 65 65 61 68 65 65 61 65 61 65 71 77 77 77 77 71
0 0 0 0 0 0 0 6 6 10 13 13 16 29 32 39 39 39 32 35 42 45 45 48 55 65 65 55 52 52 52 58 58 58 58 58 58 58 58 58 55 52 58 58 77 74 74 81 74
0 0 0 0 0 0 0 3 6 13 16 13 29 35 39 39 45 35 26 23 26 29 42 42 48 52 55 52 55 52 52 55 58 61 58 58 55 55 55 61 58 58 58 58 65 68 74 68 61
0 0 0 0 0 0 0 6 6 13 16 19 26 32 39 35 42 42 32 32 35 39 42 52 48 52 52 52 52 48 55 58 58 58 61 58 52 52 55 58 61 55 52 55 55 48 45 52 55
Height
5892 5892 5892 5892 5892 5892 5891 5891 5891 5890 5889 5889 5888 5888 5887 5887 5887 5888 5885 5883 5884 5883 5883 5883 5883 5883 5885 5886 5887 5888 5889 5890 5891 5892 5893 5894 5895 5895 5896 5897 5897 5898 5899 5899 5900 5901 5902 5902 5903
5896 5896 5895 5894 5894 5894 5894 5893 5893 5892 5891 5890 5889 5889 5888 5888 5887 5886 5885 5885 5885 5885 5885 5885 5885 5885 5886 5887 5888 5889 5890 5891 5892 5893 5894 5895 5896 5896 5897 5898 5898 5899 5900 5900 5901 5902 5903 5903 5904
5898 5897 5897 5897 5898 5897 5897 5896 5895 5893 5892 5892 5891 5891 5890 5889 5888 5887 5886 5886 5886 5886 5886 5886 5887 5887 5887 5888 5889 5890 5890 5892 5893 5894 5895 5895 5896 5897 5898 5899 5899 5900 5900 5901 5902 5903 5904 5904 5905
5901 5900 5899 5902 5902 5901 5900 5899 5897 5896 5894 5893 5893 5892 5890 5889 5889 5888 5887 5887 5887 5887 5887 5887 5888 5888 5888 5889 5889 5890 5891 5892 5893 5894 5895 5896 5897 5898 5899 5899 5900 5900 5901 5902 5903 5904 5904 5905 5905
5902 5901 5903 5905 5905 5904 5903 5901 5899 5898 5896 5895 5894 5892 5891 5890 5889 5888 5888 5888 5888 5888 5888 5888 5888 5888 5889 5889 5890 5891 5892 5893 5894 5895 5896 5897 5898 5898 5899 5900 5901 5901 5902 5902 5903 5904 5905 5905 5905
5904 5903 5908 5909 5907 5907 5905 5903 5901 5900 5898 5897 5895 5893 5891 5890 5889 5888 5888 5887 5888 5888 5888 5888 5889 5889 5889 5890 5890 5891 5892 5893 5894 5895 5896 5897 5898 5899 5899 5900 5901 5902 5903 5903 5904 5904 5905 5905 5906
5906 5908 5911 5911 5910 5909 5908 5905 5904 5902 5900 5898 5897 5895 5892 5890 5889 5888 5888 5888 5888 5889 5889 5889 5889 5889 5890 5891 5891 5892 5893 5894 5895 5896 5897 5898 5899 5899 5900 5901 5901 5902 5903 5904 5904 5905 5905 5906 5906
5910 5912 5914 5914 5912 5911 5910 5908 5906 5904 5902 5900 5899 5896 5894 5892 5890 5889 5889 5888 5889 5889 5889 5890 5890 5890 5891 5891 5892 5893 5893 5894 5895 5896 5897 5898 5899 5900 5900 5901 5902 5903 5903 5904 5904 5905 5905 5906 5907
5913 5916 5917 5916 5914 5913 5911 5910 5907 5905 5904 5902 5900 5899 5896 5894 5892 5891 5890 5890 5890 5890 5890 5890 5890 5891 5892 5892 5893 5893 5894 5895 5895 5896 5897 5898 5899 5900 5901 5902 5902 5903 5903 5903 5904 5905 5905 5905 5906
5916 5918 5919 5917 5916 5915 5913 5911 5909 5907 5906 5904 5903 5901 5899 5897 5895 5894 5892 5891 5891 5891 5891 5891 5891 5892 5892 5893 5893 5894 5894 5895 5896 5897 5897 5898 5899 5900 5901 5901 5902 5902 5903 5903 5904 5904 5905 5905 5906
5920 5920 5920 5919 5917 5916 5915 5913 5911 5910 5908 5906 5905 5903 5901 5899 5898 5896 5894 5894 5893 5893 5892 5892 5892 5892 5893 5893 5894 5894 5894 5895 5896 5896 5897 5897 5899 5899 5900 5901 5901 5902 5903 5903 5903 5904 5905 5905 5906
5922 5921 5921 5920 5919 5918 5916 5915 5914 5912 5911 5909 5907 5905 5902 5901 5900 5898 5897 5896 5895 5895 5894 5894 5893 5893 5894 5894 5894 5894 5895 5895 5896 5896 5897 5897 5898 5899 5900 5900 5901 5902 5902 5903 5903 5903 5904 5905 5905
5922 5922 5922 5921 5920 5919 5918 5917 5915 5913 5912 5910 5908 5907 5905 5903 5902 5901 5899 5898 5897 5896 5896 5895 5895 5894 5894 5894 5894 5895 5895 5895 5896 5896 5897 5897 5898 5899 5899 5900 5901 5901 5902 5902 5903 5903 5903 5904 5904
5922 5922 5922 5922 5921 5920 5919 5917 5916 5914 5913 5912 5910 5908 5907 5905 5904 5903 5901 5900 5899 5898 5897 5896 5896 5895 5895 5895 5895 5895 5895 5895 5896 5896 5897 5897 5898 5898 5899 5899 5900 5901 5901 5902 5902 5903 5903 5903 5904
5921 5922 5923 5922 5922 5921 5920 5918 5917 5915 5914 5913 5911 5910 5908 5906 5905 5904 5903 5901 5900 5899 5898 5897 5897 5896 5895 5895 5895 5895 5895 5895 5896 5896 5897 5897 5898 5898 5899 5899 5900 5901 5901 5902 5902 5903 5903 5903 5904
5922 5922 5923 5923 5923 5922 5921 5919 5918 5916 5915 5914 5912 5911 5909 5907 5906 5905 5904 5903 5901 5900 5899 5898 5897 5896 5896 5895 5895 5895 5895 5895 5896 5896 5897 5897 5897 5898 5898 5899 5899 5900 5901 5901 5902 5902 5903 5903 5903
5921 5922 5924 5925 5924 5922 5921 5920 5918 5916 5915 5914 5912 5911 5910 5908 5906 5906 5904 5903 5902 5901 5900 5899 5898 5897 5896 5896 5895 5895 5894 5895 5895 5896 5896 5895 5896 5897 5898 5898 5899 5899 5900 5900 5901 5901 5902 5902 5902
5922 5924 5925 5925 5924 5923 5921 5919 5917 5917 5915 5913 5912 5911 5910 5909 5907 5906 5905 5903 5902 5901 5900 5899 5898 5897 5896 5895 5895 5895 5894 5894 5895 5895 5895 5896 5896 5896 5897 5897 5898 5899 5899 5899 5900 5900 5900 5901 5901
5920 5922 5923 5924 5924 5922 5921 5919 5917 5915 5914 5912 5911 5910 5910 5909 5907 5906 5905 5903 5902 5901 5900 5899 5898 5897 5896 5895 5895 5894 5894 5894 5894 5894 5895 5895 5895 5895 5896 5896 5897 5898 5898 5898 5898 5898 5898 5899 5899
5919 5920 5920 5921 5921 5920 5919 5918 5916 5915 5913 5911 5910 5909 5908 5908 5907 5905 5904 5903 5902 5901 5900 5899 5898 5897 5896 5895 5894 5894 5893 5893 5893 5893 5894 5894 5894 5894 5894 5895 5896 5896 5896 5896 5897 5897 5897 5897 5897
5917 5918 5919 5919 5919 5918 5917 5916 5914 5913 5912 5911 5909 5907 5907 5906 5906 5905 5904 5902 5901 5900 5899 5898 5897 5896 5895 5894 5893 5893 5892 5892 5892 5893 5893 5892 5893 5893 5893 5893 5894 5894 5894 5894 5895 5895 5895 5895 5895
5915 5916 5917 5916 5916 5916 5917 5915 5913 5911 5910 5908 5907 5906 5905 5904 5904 5903 5902 5901 5900 5899 5898 5897 5896 5895 5894 5893 5892 5891 5891 5891 5891 5892 5892 5892 5892 5891 5891 5891 5891 5892 5892 5892 5892 5892 5892 5893 5893
5913 5913 5913 5914 5914 5914 5914 5913 5911 5909 5907 5906 5906 5905 5904 5903 5902 5901 5901 5900 5899 5898 5897 5896 5895 5894 5893 5892 5891 5890 5890 5890 5890 5890 5890 5891 5890 5890 5889 5889 5889 5889 5890 5890 5889 5889 5889 5889 5890
5909 5910 5910 5911 5911 5911 5911 5911 5908 5907 5907 5905 5904 5903 5902 5901 5900 5899 5898 5897 5897 5896 5895 5895 5894 5893 5892 5891 5890 5889 5889 5889 5889 5889 5889 5889 5889 5888 5888 5887 5887 5887 5887 5887 5886 5886 5886 5886 5886
5906 5907 5908 5909 5909 5909 5910 5908 5907 5905 5905 5904 5902 5901 5900 5899 5898 5897 5895 5894 5894 5893 5893 5893 5892 5892 5891 5890 5890 5889 5889 5888 5887 5887 5887 5887 5887 5886 5886 5886 5885 5885 5885 5884 5883 5883 5883 5882 5882
5903 5905 5906 5907 5908 5907 5907 5905 5904 5903 5902 5901 5900 5899 5897 5896 5896 5894 5893 5892 5891 5890 5890 5890 5890 5890 5889 5889 5888 5887 5887 5886 5886 5885 5885 5885 5884 5884 5884 5883 5883 5882 5881 5881 5880 5879 5879 5879 5878
5899 5900 5902 5904 5904 5904 5904 5903 5900 5897 5898 5898 5897 5896 5895 5893 5893 5891 5890 5889 5888 5888 5888 5887 5887 5887 5887 5887 5886 5885 5885 5885 5884 5883 5883 5882 5881 5881 5881 5880 5879 5878 5878 5877 5876 5875 5875 5874 5874
5895 5896 5898 5899 5900 5900 5901 5899 5896 5893 5893 5893 5893 5892 5890 5889 5888 5887 5886 5886 5885 5885 5885 5884 5884 5885 5884 5884 5883 5883 5883 5882 5882 5881 5881 5880 5878 5878 5877 5877 5876 5874 5874 5873 5873 5872 5871 5870 5870
5890 5892 5892 5894 5895 5897 5897 5896 5892 5890 5888 5888 5888 5887 5886 5885 5884 5884 5883 5883 5882 5881 5881 5881 5881 5881 5881 5881 5881 5880 5880 5879 5879 5878 5877 5876 5875 5874 5873 5872 5871 5871 5870 5869 5868 5867 5866 5865 5864
5885 5887 5888 5890 5890 5891 5892 5892 5887 5885 5884 5883 5883 5883 5882 5881 5881 5880 5880 5879 5878 5877 5878 5878 5878 5878 5878 5878 5877 5877 5876 5875 5875 5874 5873 5872 5871 5870 5869 5868 5867 5866 5865 5864 5863 5862 5861 5860 5858
Wind_Speed
16 15 15 15 17 13 10 8 7 6 5 4 4 3 3 3 3 4 4 4 4 4 4 4 5 6 7 8 8 8 8 8 8 7 7 7 6 5 6 6 6 7 7 7 7 8 7 8 7
17 15 16 17 16 12 10 9 8 7 6 5 4 3 3 3 3 3 3 3 4 4 4 4 5 5 6 7 7 7 7 7 7 7 7 6 6 5 5 5 5 6 6 7 6 7 7 7 6
18 17 18 18 13 12 11 11 9 7 7 6 5 5 4 3 3 3 2 2 3 3 3 3 4 4 5 6 7 7 7 7 7 7 7 6 5 4 4 4 5 6 6 6 5 6 7 6 6
18 19 21 17 13 13 12 11 10 9 8 7 6 5 5 4 4 3 2 1 1 2 3 2 3 3 4 5 6 6 6 7 7 7 7 6 5 4 3 3 4 5 5 5 5 5 6 6 6
19 21 21 14 13 12 11 10 10 9 8 8 8 7 6 5 4 3 2 1 1 1 2 2 2 3 3 4 5 6 6 7 6 6 6 6 5 4 4 4 3 5 5 4 4 4 5 5 5
19 20 15 11 11 11 10 10 9 9 9 8 8 8 7 6 5 3 2 1 1 1 1 2 2 2 3 4 5 5 5 6 6 6 6 5 4 3 4 4 3 5 4 4 4 4 5 5 4
19 18 12 9 10 10 10 10 10 9 9 9 9 9 9 7 6 4 2 1 1 1 1 1 2 2 2 3 3 4 4 6 5 5 5 5 4 4 3 3 4 4 4 4 3 4 4 4 3
18 17 11 7 8 9 10 10 9 9 10 10 10 10 10 10 8 5 3 2 1 1 1 1 1 2 1 2 3 4 4 5 5 5 5 4 4 4 3 3 4 4 4 4 3 3 3 4 3
16 14 9 6 6 8 8 9 9 10 11 11 11 11 11 11 10 8 6 4 2 1 0 0 1 1 1 1 2 4 4 4 5 5 5 4 4 4 4 4 4 3 3 4 4 4 4 4 2
13 10 7 5 6 8 9 9 10 11 10 10 11 11 11 11 10 9 7 6 5 4 2 1 0 1 1 1 2 3 3 4 5 5 4 4 4 4 5 4 4 4 4 4 4 4 4 4 2
8 6 6 5 7 8 9 10 10 10 9 10 10 10 10 11 11 10 8 7 6 5 4 3 2 2 1 2 2 3 3 3 4 5 4 4 4 5 5 5 4 4 3 4 4 5 4 3 3
4 4 4 5 6 7 8 9 9 8 9 9 10 10 10 11 12 11 10 8 6 5 4 3 3 3 2 2 3 3 3 3 4 4 3 3 4 5 5 4 4 4 3 3 4 5 4 4 4
2 3 4 5 6 7 8 8 9 9 9 9 11 10 9 10 11 10 11 9 7 6 5 4 4 4 3 3 3 3 3 3 3 3 3 3 3 3 4 5 5 4 4 4 4 4 4 4 4
2 2 3 4 6 7 7 8 9 10 10 10 10 9 9 10 10 10 10 10 9 8 6 5 4 4 4 4 3 3 2 2 2 3 4 3 3 3 4 5 5 5 6 5 5 5 5 4 4
1 1 2 5 7 7 6 8 9 10 11 10 9 9 9 9 9 10 10 10 9 9 8 7 6 6 6 5 3 4 3 2 3 3 3 3 4 4 5 5 5 6 6 5 4 5 5 5 5
1 2 3 5 6 8 9 9 10 11 11 11 9 8 8 8 8 9 9 9 9 9 8 8 7 7 6 6 5 5 4 3 3 3 3 4 4 5 5 6 6 6 6 5 5 5 6 6 7
2 4 5 6 7 8 10 10 11 11 12 12 10 10 10 9 9 9 9 10 10 10 9 9 9 8 7 6 6 5 4 4 4 4 5 5 5 6 6 6 7 7 6 6 6 7 7 6 8
2 3 5 6 7 8 9 10 12 12 12 12 12 11 11 10 9 10 10 10 10 10 10 10 9 9 8 8 7 6 5 5 5 5 5 6 6 6 7 7 8 8 7 7 7 8 8 7 8
7 7 6 6 9 9 11 12 13 14 12 13 13 13 12 11 11 10 10 10 10 10 9 10 10 9 9 8 8 6 5 5 5 5 6 6 7 7 7 7 8 8 8 8 9 9 9 9 8
9 8 7 7 10 10 11 12 12 15 14 14 15 14 13 12 11 11 11 10 10 10 10 10 10 10 9 9 8 8 7 6 6 6 7 7 8 7 7 8 9 9 9 10 10 11 10 10 10
10 10 9 10 12 13 13 11 14 14 16 15 14 15 15 13 12 11 12 11 11 11 10 10 10 10 10 9 9 9 8 7 6 7 8 8 8 8 7 8 9 10 10 10 11 11 10 11 11
12 11 11 12 12 12 12 14 15 15 16 16 15 16 15 15 14 13 13 12 12 11 11 11 11 11 10 10 9 9 9 8 7 7 7 7 8 9 9 9 10 10 10 11 11 12 12 12 12
13 13 13 12 13 13 13 14 16 15 16 16 17 16 16 16 15 14 14 13 13 12 12 12 12 11 11 10 10 10 9 9 8 8 8 8 9 9 9 9 9 10 11 12 12 13 13 13 14
14 13 11 11 12 13 12 13 15 17 18 17 19 18 17 17 16 16 15 14 14 14 13 13 12 11 11 11 11 10 10 11 10 9 9 9 9 9 9 10 11 11 12 12 12 13 14 15 14
14 12 12 12 13 12 12 14 17 19 19 18 19 19 17 17 17 17 17 15 15 14 14 13 12 12 11 11 11 11 12 12 12 11 10 10 11 11 11 11 12 12 12 13 13 13 14 15 15
14 14 14 13 12 13 13 16 16 18 18 19 19 18 18 17 16 18 18 17 16 14 14 13 12 12 12 12 12 12 13 13 12 11 11 12 12 12 12 13 14 14 14 15 15 15 16 16 16
17 16 15 16 15 16 15 16 17 19 18 18 19 19 18 17 17 17 18 16 15 14 13 13 13 13 13 12 12 13 13 13 12 12 12 14 14 14 14 15 16 16 16 16 16 17 17 17 18
18 16 15 16 16 16 16 18 21 20 18 18 20 19 18 18 18 17 18 17 15 14 15 14 13 13 13 13 13 13 13 14 14 14 14 15 16 16 17 17 17 18 18 18 18 19 19 19 20
18 18 17 17 17 16 17 19 20 21 21 20 20 20 20 20 19 17 17 17 17 16 16 15 14 14 15 14 14 15 16 16 16 16 17 17 18 19 19 20 20 20 20 20 21 21 21 21 22
19 19 19 19 19 18 18 21 22 20 20 21 20 21 20 21 20 19 18 18 16 16 17 17 17 17 17 17 17 18 18 18 19 19 20 20 20 21 21 22 22 23 23 23 23 22 22 22 23
Wind_Direction
81 79 77 70 61 56 50 44 45 45 43 42 50 56 59 50 50 53 47 56 78 88 92 103 127 146 156 161 163 162 160 157 154 153 149 144 145 146 140 140 142 139 137 136 130 129 125 119 111
81 78 73 63 54 47 46 47 41 40 40 32 31 34 31 26 28 37 46 55 71 87 92 101 122 142 154 163 168 172 169 168 164 161 160 158 159 154 144 145 149 149 140 136 132 134 127 120 115
80 74 68 59 46 40 43 45 44 39 41 34 32 29 21 12 13 21 28 46 66 90 94 102 116 132 152 165 173 180 177 176 172 171 169 167 166 160 150 154 153 156 148 146 141 143 136 129 122
80 72 64 55 44 39 42 41 40 34 40 34 35 28 22 17 11 1 7 63 94 94 101 105 123 134 153 170 182 185 185 186 184 177 173 173 172 174 166 165 165 163 160 156 148 150 147 138 132
79 66 60 47 36 37 42 40 36 32 34 34 34 24 24 20 13 3 356 43 103 129 116 134 142 154 168 179 187 185 190 194 194 188 183 176 174 180 180 174 163 161 158 157 156 154 158 149 141
76 67 59 45 34 34 36 35 35 35 32 31 33 23 17 22 17 2 347 331 309 205 149 136 146 163 180 184 190 188 190 193 191 193 187 187 189 183 176 176 158 160 163 155 159 172 168 163 159
77 69 55 38 35 35 35 30 32 30 25 26 27 25 19 22 16 9 1 316 285 236 189 158 120 145 173 189 189 193 189 187 195 203 196 192 187 177 178 177 168 167 173 175 175 183 182 191 180
77 70 55 38 39 38 33 30 31 28 22 24 29 30 27 28 23 21 24 360 306 272 210 179 120 123 162 189 197 204 203 201 204 206 197 193 192 194 193 193 186 188 188 194 200 203 210 207 195
74 69 53 33 37 39 36 26 30 30 26 27 31 31 29 32 32 32 33 22 27 52 82 190 115 117 185 202 201 202 213 208 204 205 203 207 209 208 209 212 206 211 206 214 219 232 224 212 203
61 62 59 34 42 37 32 28 32 30 27 32 34 33 31 35 33 31 40 44 46 47 47 38 299 296 283 245 225 212 224 212 209 219 225 216 217 218 216 220 212 210 212 222 240 244 226 219 223
55 49 54 40 51 46 36 30 33 29 23 28 29 27 33 34 33 33 40 45 43 43 41 31 5 330 305 264 249 239 245 231 227 233 237 228 227 220 221 227 224 215 218 229 247 246 234 226 247
61 42 45 40 45 45 39 31 24 18 21 22 20 25 31 34 32 32 30 33 36 33 31 22 6 348 323 306 264 261 261 266 256 251 242 247 245 234 228 237 235 223 229 235 246 244 237 236 241
64 45 25 25 27 25 27 22 15 10 14 17 17 19 25 30 28 26 25 27 26 23 20 9 356 337 322 319 298 282 263 263 254 248 243 246 245 245 240 244 235 236 234 231 244 249 242 243 252
142 72 22 13 14 8 6 5 9 7 7 10 12 12 16 24 20 21 22 21 22 20 18 6 354 352 344 333 317 300 289 294 250 239 249 254 247 246 253 244 240 237 235 242 249 254 252 252 270
109 50 360 360 354 339 342 353 358 357 359 359 360 4 7 10 11 16 17 14 13 14 14 8 360 359 360 352 345 336 317 284 269 258 255 263 260 249 248 243 239 231 234 249 261 273 275 265 264
302 10 359 348 331 328 333 335 332 339 345 346 345 349 357 359 8 7 7 5 4 5 4 2 358 357 358 353 344 332 313 289 268 259 264 265 264 258 252 248 245 247 251 261 271 280 275 273 270
293 349 327 316 313 319 322 316 320 324 330 334 334 336 343 348 354 352 357 358 356 357 357 358 358 358 353 346 338 331 310 283 268 271 276 273 270 265 259 260 268 267 268 273 274 274 274 272 269
248 261 276 296 305 305 304 302 306 316 318 318 325 329 334 336 341 341 346 347 347 348 348 348 351 352 348 343 335 320 310 288 272 276 279 276 278 271 265 264 272 275 277 276 273 270 273 277 280
238 234 242 264 279 284 290 300 305 310 309 309 313 320 325 327 330 330 334 337 338 339 341 345 346 345 343 340 336 323 314 293 276 274 282 285 286 280 273 269 271 275 277 279 279 278 279 280 283
259 252 256 268 270 280 285 291 302 301 310 311 307 312 318 320 322 327 326 332 333 334 335 338 340 339 337 334 336 330 316 298 281 279 285 289 289 279 271 271 273 275 274 276 280 282 279 278 278
252 255 257 261 271 286 293 287 292 293 304 303 305 309 311 312 315 321 324 327 327 328 329 329 330 330 332 331 329 331 323 313 296 291 293 292 289 285 280 275 278 276 275 277 279 280 284 281 278
257 260 259 260 263 272 280 285 292 295 296 298 302 304 306 306 308 311 314 319 321 320 319 320 322 325 327 326 324 325 323 318 309 304 311 307 300 295 288 285 283 283 281 283 279 278 279 280 279
254 258 260 260 264 266 262 269 279 290 287 297 302 300 300 300 303 304 308 309 311 312 312 314 317 320 323 325 321 321 316 314 307 302 306 311 312 310 304 300 292 288 288 289 284 281 282 281 281
255 257 264 271 270 274 275 268 269 273 282 290 297 300 300 297 297 299 301 303 303 303 305 307 311 314 317 321 323 319 317 311 307 299 297 303 308 311 307 304 300 292 295 295 289 286 287 284 283
256 258 265 270 278 285 286 275 271 274 277 281 289 294 294 292 293 295 298 297 295 295 297 302 305 307 312 315 319 316 315 314 310 300 297 299 302 305 305 307 306 303 303 302 296 292 292 288 285
254 252 255 262 267 276 276 272 271 273 279 285 287 290 292 291 291 294 295 293 293 291 294 296 297 301 305 310 316 315 315 317 316 303 297 297 299 301 302 302 303 302 303 304 300 293 290 288 286
252 248 253 258 261 266 268 269 269 273 276 281 287 289 289 290 290 291 292 292 291 290 290 292 292 295 300 303 309 311 313 314 315 310 305 300 299 300 300 299 299 299 300 301 300 290 288 287 288
252 252 250 249 257 262 271 274 271 269 272 282 289 290 290 290 287 285 290 292 288 285 286 288 288 293 297 299 304 306 307 310 311 308 304 306 302 298 296 296 296 297 298 297 296 295 289 286 288
252 252 247 248 247 254 266 271 268 270 277 282 289 290 289 290 290 289 287 288 288 283 282 282 286 289 293 297 300 302 304 304 303 303 302 299 297 295 295 295 295 295 296 296 296 296 292 287 288
252 251 250 249 250 247 256 270 273 272 275 281 282 285 286 288 289 287 284 285 281 281 282 280 283 287 290 293 295 297 299 299 299 300 298 296 295 295 293 292 293 293 294 293 293 294 294 292 291